User: anonymous   Login
Location: Unspecified
(0.0000°N, 0.0000°E)
Time: 12:44:11
(UTC+00:00)
Language:

KANOPUS-V-IK - Orbit

View from above orbital plane
View from above orbital plane
View from above satellite
View from above satellite

Ground track
Ground track

The orbit data is extracted from the following two-line orbital elements,

1 42825U 17042A   18053.62039391 +.00000167 +00000-0 +11219-4 0  9997
2 42825 097.4304 324.5716 0001586 080.3614 279.7799 15.18795471033914
Epoch (UTC): 22 February 2018 14:53:22
Eccentricity: 0.0001586
inclination: 97.4304°
perigee height: 508 km
apogee height: 510 km
right ascension of ascending node: 324.5716°
argument of perigee: 80.3614°
revolutions per day: 15.18795471
mean anomaly at epoch: 279.7799°
orbit number at epoch: 3391

The dashed part of the orbit path shows where the satellite is in the earth's shadow,  

DLR